ARIANE 5 R/B, 42693

Orbit data source: Space-Track

ARIANE 5 R/B, 42693 is space debris in HEO originally from a launch on Thu, 04 May 2017 UTC launched from the French Guiana (FRGUI). Debris objects in space refer to the collection of defunct objects orbiting the Earth. Examples of debris include non-operational satellites, rocket bodies, and fragments generated from explosions, collisions, or faulty payload assembly.

Loading next visibility...
Identifier
42693, 2017-023C
Orbit
HEO
Country
Flag of FRFR
Related business
Manufacturer
Airbus Safran
Mission
Spacecraft
Bus & Motor
ESC-A, Unknown motor
Mass
~5,000 kg wet, ~5,000 kg dry
Launch date (UTC)
2017-05-04 (8 years ago)
Launch vehicle
Unknown
Launch site
French Guiana (FRGUI)
Object type
Payload
Rocket body
Debris
Shape & HBR
Cyl + 1 Nozzle, 3.5 m
Radar Cross Section
41.627 m², Large (>1 m²)

Expand to show TLE details & history
Last TLE update: 13 hours ago

TLE from 13 hours ago
0 ARIANE 5 R/B
1 42693U 17023C   25258.37938739  .00002281  00000-0  70166-3 0  9994
2 42693   3.4391 141.9025 7150150 265.8453  17.2476  2.44125207 71473
Epoch: 2025-09-15T09:06Z
TLE epoch observation values (Epoch: 2025-09-15T09:06:19.07Z)
Latitude
0.00003°
Longitude
10.99617°
Altitude
5,694.225 km
Speed
6.994 km/s
True Right ascension
09h 28m 38s
True Declination
0° 00' 00"
Sunlit
Object was in daylight at epoch
Visualization orbit readout
Latitude
Unknown
Longitude
Unknown
Altitude
Unknown
Speed
Unknown
Apparent Right ascension
Unknown
Apparent Declination
Unknown
Sunlit
N/A
Visualization observer readout
Local Sidereal Time
14:44:23
Azimuth
Unknown
Elevation
Unknown
Doppler factor
Unknown
Orbital elements
Apogee altitude
33,588.492 km
Perigee altitude
263.14 km
Semi-major axis
23,303.953 km
Eccentricity
0.71502
Inclination
3.4391°
RAAN
141.9025°
Arg. of periapsis
265.8453°
True anomaly
94.24786°
Mean anomaly
17.2476°
Eccentric anomaly
47.40686°
Mean motion
0.6101 °/min
Orbital period
590.07 mins
BSTAR
0.00070166
Loading maneuver chart data...
Computing Atmospheric mass density...
Loading historical data...
Loading historical data...
Loading historical data...
Loading historical data...
Loading historical data...
Loading historical data...
Loading historical data...
Other satellites on launch #23 in the year 2017 (2017-05-04 UTC)

Documentation

Showing up to 5 results
|